Weather History for Santiago, Dominican Republic

Change the Weather History Date:

Thursday, September 26, 2013

  Actual Average Record
Temperature  
Mean Temperature 83 °F -  
Max Temperature 94 °F 90 °F 94 °F (2013)
Min Temperature 72 °F 71 °F 69 °F (2014)
Cooling Degree Days 18    
Growing Degree Days 33 (Base 50)    
Moisture  
Dew Point 71 °F    
Average Humidity 78    
Maximum Humidity 100    
Minimum Humidity 55    
Precipitation  
Precipitation 0.00 in 0.14 in - ()
Sea Level Pressure  
Sea Level Pressure 29.88 in    
Wind  
Wind Speed 11 mph ()    
Max Wind Speed 134 mph    
Max Gust Speed -    
Visibility 6.3 miles    
Events Thunderstorm    
Averages and records for this station are not official NWS values.
T = Trace of Precipitation, MM = Missing Value Source: Averaged Metar Reports

Daily Weather History Graph

Daily Weather History Graph

Search for Another Location

Airport:

Trip Planner

Search our weather history database for the weather conditions in past years. The results will help you decide how hot, cold, wet, or windy it might be!

Date:

Astronomy

Sep. 26, 2013 Rise Set
Actual Time 6:32 AM AST 6:34 PM AST
Civil Twilight 6:10 AM AST 6:56 PM AST
Nautical Twilight 5:44 AM AST 7:22 PM AST
Astronomical Twilight 5:19 AM AST 7:47 PM AST
Moon No Moon Rise 12:42 PM AST (9/26)
Length of Visible Light 12h 46m
Length of Day
12h 02m
Waning Gibbous, 55% of the Moon is Illuminated
Sep 26
Waning Gibbous
Sep 26
Last Quarter
Oct 4
New
Oct 11
First Quarter
Oct 18
Full

Hourly Weather History & Observations

Time (AST) Temp. Heat Index Dew Point Humidity Pressure Visibility Wind Dir Wind Speed Gust Speed Precip Events Conditions
12:00 AM 78.8 °F - 73.4 °F 83% 29.92 in 6.2 mi SE 5.8 mph - N/A   Partly Cloudy
1:00 AM 78.8 °F - 73.4 °F 83% 29.92 in 6.2 mi SE 5.8 mph - N/A   Partly Cloudy
2:00 AM 75.2 °F - 73.4 °F 94% 29.89 in 6.2 mi ESE 5.8 mph - N/A   Partly Cloudy
3:00 AM 75.2 °F - 73.4 °F 94% 29.89 in 6.2 mi ESE 6.9 mph - N/A   Partly Cloudy
4:00 AM 75.2 °F - 73.4 °F 94% 29.89 in 6.2 mi SE 4.6 mph - N/A   Partly Cloudy
5:00 AM - - -4 °F %  in 6 mi SE 134.2 mph - -  
5:00 AM 73.4 °F - 73.4 °F 100% 29.89 in 6.2 mi ESE 4.6 mph - N/A   Partly Cloudy
6:00 AM 73.4 °F - 73.4 °F 100% 29.89 in 6.2 mi SE 4.6 mph - N/A   Scattered Clouds
7:00 AM 73.4 °F - 73.4 °F 100% 29.89 in 6.2 mi SE 4.6 mph - N/A   Scattered Clouds
8:00 AM 76 °F - 75 °F 95% 29.91 in 5 mi East 6.7 mph - -   Haze
8:00 AM 75.2 °F - 75.2 °F 100% 29.89 in 6.2 mi East 6.9 mph - N/A   Scattered Clouds
9:00 AM 78.8 °F - 73.4 °F 83% 29.92 in 6.2 mi East 6.9 mph - N/A   Scattered Clouds
10:00 AM 80.6 °F 86.2 °F 75.2 °F 84% 29.89 in 6.2 mi ESE 11.5 mph - N/A   Scattered Clouds
11:00 AM 83 °F - 74 °F 69% 29.90 in 6 mi SE 6.7 mph - -   Haze
11:00 AM 84.2 °F 92.3 °F 75.2 °F 74% 29.89 in 6.2 mi SE 6.9 mph - N/A   Partly Cloudy
12:00 PM 87.8 °F 95.6 °F 73.4 °F 62% 29.89 in 6.2 mi SE 9.2 mph - N/A   Partly Cloudy
1:00 PM 89.6 °F 96.2 °F 71.6 °F 55% 29.86 in 6.2 mi SE 9.2 mph - N/A   Partly Cloudy
2:00 PM 91.4 °F 105.1 °F 77.0 °F 63% 29.83 in 6.2 mi SE 11.5 mph - N/A   Partly Cloudy
3:00 PM 91.4 °F 100.1 °F 73.4 °F 55% 29.83 in 6.2 mi ESE 13.8 mph - N/A   Partly Cloudy
4:00 PM 93.2 °F 105.0 °F 75.2 °F 56% 29.80 in 6.2 mi East 9.2 mph - N/A   Partly Cloudy
5:00 PM 91.4 °F 100.1 °F 73.4 °F 55% 29.80 in 6.2 mi ESE 11.5 mph - N/A   Partly Cloudy
6:00 PM 87.8 °F 92.6 °F 69.8 °F 55% 29.83 in 6.2 mi East 11.5 mph - N/A   Scattered Clouds
7:00 PM 86.0 °F 91.8 °F 71.6 °F 62% 29.86 in 6.2 mi North 6.9 mph - N/A   Mostly Cloudy
8:00 PM 82 °F - 76 °F 79% 29.88 in 10 mi Calm Calm - -   Scattered Clouds
8:00 PM 84.2 °F 90.9 °F 73.4 °F 70% 29.86 in 6.2 mi WSW 4.6 mph - N/A Thunderstorm Thunderstorm
9:00 PM 78.8 °F - 69.8 °F 74% 29.92 in 6.2 mi Calm Calm - N/A Thunderstorm Thunderstorm
10:00 PM 77.0 °F - 69.8 °F 78% 29.92 in 6.2 mi Calm Calm - N/A   Scattered Clouds
11:00 PM 77 °F - 72 °F 80% 29.94 in 6 mi Calm Calm - -   Mostly Cloudy
11:00 PM 77.0 °F - 71.6 °F 83% 29.92 in 6.2 mi Calm Calm - N/A Thunderstorm Thunderstorm